STARLINK-3959, 52564

Orbit data source: Space-Track

STARLINK-3959, 52564 is a payload satellite owned by SpaceX/Seattle (US) in LEO that was launched on Fri, 13 May 2022 UTC via an FALCON 9 launch vehicle from the Air Force Western Test Range (AFWTR). Payload-class satellites include a variety of spacecraft equipped with specific instruments for various scientific and technological missions. These include communications satellites like Starlink; space stations such as the ISS; scientific satellites like the Hubble; Earth observation satellites from companies like Planet Labs, Umbra, and HawkEye 360; GPS; miniature CubeSats for education and research; and military/defense satellites.

Loading next visibility...
Identifier
52564, 2022-051AH
Orbit
LEO
Country
Flag of USUS
Related business
Manufacturer
SpaceX/Seattle
Mission
Operational Commercial Communications
Bus & Motor
STARLINK, Unknown motor
Mass
297 kg wet, ~275 kg dry
Launch date (UTC)
2022-05-13 (4 years ago)
Launch vehicle
FALCON 9
Launch site
Air Force Western Test Range (AFWTR)
Object type
Payload
Rocket body
Debris
Shape & HBR
Box + 1 Pan, 10.1 m
Radar Cross Section
13.562 m², Large (>1 m²)

Expand to show TLE details & history
Last TLE update: 3 days ago

TLE from 3 days ago
0 STARLINK-3959
1 52564U 22051AH  26170.90245372  .00000031  00000-0  20065-4 0  9991
2 52564  53.1591  35.1694 0001263  82.7093 277.4042 15.08834034226807
Epoch: 2026-06-19T21:39Z
TLE epoch observation values (Epoch: 2026-06-19T21:39:32.001Z)
Latitude
-0.00001°
Longitude
162.16129°
Altitude
540.54 km
Speed
7.593 km/s
True Right ascension
02h 20m 40s
True Declination
0° 00' 00"
Sunlit
Object was in daylight at epoch
Visualization orbit readout
Latitude
Unknown
Longitude
Unknown
Altitude
Unknown
Speed
Unknown
Apparent Right ascension
Unknown
Apparent Declination
Unknown
Sunlit
N/A
Visualization observer readout
Local Sidereal Time
21:33:02
Azimuth
Unknown
Elevation
Unknown
Doppler factor
Unknown
Orbital elements
Apogee altitude
540.89 km
Perigee altitude
539.142 km
Semi-major axis
6,918.153 km
Eccentricity
0.00013
Inclination
53.1591°
RAAN
35.1694°
Arg. of periapsis
82.7093°
True anomaly
277.38985°
Mean anomaly
277.4042°
Eccentric anomaly
277.39702°
Mean motion
3.77188 °/min
Orbital period
95.44 mins
BSTAR
0.000020065
Loading maneuver chart data...
Computing Atmospheric mass density...
Loading historical data...
Loading historical data...
Loading historical data...
Loading historical data...
Loading historical data...
Loading historical data...
Loading historical data...

Documentation

Showing up to 5 results
|